Regional Weather Roundup
Issued by NWS

Home | Current Version | Previous Version | Graphics & Text | Print | Product List | Glossary On
Versions: 1 2 3 4 5 6 7 8 9 10 11 12 13 14 15 16 17 18 19 20 21 22 23 24 25 26 27 28 29 30 31 32 33 34 35 36 37 38 39 40 41 42 43 44 45 46 47 48 49 50
000
ASUS45 KBOU 260707
RWRCO

WEATHER ROUNDUP FOR COLORADO
NATIONAL WEATHER SERVICE DENVER/BOULDER CO
100 AM MDT SUN MAR 26 2017

NOTE: "FAIR" INDICATES FEW OR NO CLOUDS BELOW 12000 FEET WITH NO
SIGNIFICANT WEATHER AND/OR OBSTRUCTIONS TO VISIBILITY.

COZ001>005-013-030-031-260800-
...NORTHWEST COLORADO...

CITY           SKY/WX    TMP DP  RH WIND       PRES   REMARKS
CRAIG          LGT RAIN  42  35  76 W7        29.91F
HAYDEN         CLOUDY    39  34  81 E3        29.91F
MEEKER         LGT RAIN  42  34  73 CALM      29.90F
MOUNT WERNER   NOT AVBL
STEAMBOAT SPGS CLOUDY    37  36  94 CALM      29.91F
WALDEN         NOT AVBL
$$

COZ006>008-011-260800-
...WEST CENTRAL VALLEYS...

CITY           SKY/WX    TMP DP  RH WIND       PRES   REMARKS
GRAND JUNCTION CLOUDY    47  35  63 W5        29.86S
MONTROSE       CLOUDY    43  37  79 SW10      29.92S
EAGLE          MOCLDY    38  31  76 SE5       29.92F
RIFLE          CLOUDY    41  34  76 E6        29.89F
DELTA          CLOUDY    48  34  58 E5        29.89S
NUCLA          RAIN      41  37  87 E5        29.97S
$$

COZ017>023-064>068-260800-
...SOUTHWEST COLORADO...

CITY           SKY/WX    TMP DP  RH WIND       PRES   REMARKS
DURANGO        CLOUDY    37  33  85 SW15      29.92F
CORTEZ         LGT RAIN  39  38  96 W3        29.95F
PAGOSA SPRINGS MIX PCPN  36  36  99 SW7       29.93F
TELLURIDE      NOT AVBL
WOLF CREEK PAS SNOW      23  23 100 SW8       30.00F VSB 1/2 WCI  14
$$

COZ009-010-012-014-032>034-037-058>063-260800-
...CENTRAL COLORADO...

CITY           SKY/WX    TMP DP  RH WIND       PRES   REMARKS
ASPEN          CLOUDY    37  35  92 S7        29.90F
BUENA VISTA    FAIR      39  29  67 NW8       29.89R
COPPER MTN     HAZE      28  23  80 MISG      29.99S VSB 1/4
BERTHOUD PASS  HAZE      21  10  63 N8        29.98F VSB<1/4 WCI  12
COTTONWOOD PAS MOCLDY    36  28  75 SE9       29.93S
GUNNISON       FAIR      36  30  79 N3        29.91F
KREMMLING      MOCLDY    39  36  87 CALM      29.92F
LEADVILLE      CLOUDY    29  26  89 N9        29.93F WCI  20
MONARCH PASS   CLOUDY    27  21  80 W3        30.08F
SALIDA         CLOUDY    41  31  65 S10       29.96S
SUNLIGHT       FOG       27  27 100 W7        30.01F VSB 1/4 WCI  19
WILKERSON PASS FAIR      28  25  86 W5        29.98F WCI  23
$$

COZ069>075-260800-
...SAN LUIS VALLEY/SANGRE DE CRISTO MOUNTAINS...

CITY           SKY/WX    TMP DP  RH WIND       PRES   REMARKS
ALAMOSA        CLOUDY    37  35  92 E5        29.89S
LA VETA PASS   NOT AVBL
SAGUACHE       LGT RAIN  39  30  70 W5        29.91R
$$

COZ035-036-038>040-260800-
...NORTHERN COLORADO FRONT RANGE...

CITY           SKY/WX    TMP DP  RH WIND       PRES   REMARKS
DENVER INTL AP MOCLDY    47  32  56 SW9       29.81R
DMNS CITY PARK   N/A     50  33  50 W3        29.80F
AURORA         MOCLDY    46  31  56 W7        29.83R
FRONT RANGE AP MOCLDY    46  34  61 S17       29.82S
ERIE MUNI ARPT MOCLDY    49  30  47 W5        29.80F
BOULDER MUN AP MOCLDY    50  34  53 SW6       29.79F
CENTENNIAL     MOCLDY    45  33  63 SE6       29.82F
BROOMFIELD     CLOUDY    48  34  57 W13       29.81F
FORT COLLINS   FAIR      47  33  58 N8        29.81F
LONGMONT       CLOUDY    53  31  42 CALM      29.82S
$$

COZ041-046-047-076>085-087-088-260800-
...PIKES PEAK/PALMER DIVIDE AND SOUTHERN FOOTHILLS...

CITY           SKY/WX    TMP DP  RH WIND       PRES   REMARKS
COLO. SPRINGS  MOCLDY    38  26  62 N8        29.84F
A. F. ACADEMY  FAIR      34  30  85 N9        29.84F WCI  26
SCHRIEVER AFB  MOCLDY    39  26  58 N9        29.83F
ELLICOTT         N/A    N/A N/A N/A E13       29.80F
FALCON         FAIR      36  24  63 NE5       29.86F
FORT CARSON    FAIR      39  29  68 N7        29.81F
LIMON          FAIR      40  31  70 SE3       29.84F
MONUMENT HILL  FAIR      34  28  80 S3        29.87F
TRINIDAD       FAIR      45  34  65 SE6       29.76F
$$

COZ042>045-048>051-090-091-260800-
...NORTHEAST COLORADO...

CITY           SKY/WX    TMP DP  RH WIND       PRES   REMARKS
GREELEY ARPT   FAIR      45  33  63 NE7       29.81F
AKRON          FAIR      43  30  60 S13       29.83F
BURLINGTON     FAIR      40  38  93 SE9       29.84F
WRAY           NOT AVBL
STERLING       FAIR      45  32  61 SW3       29.82F
HOLYOKE        FAIR      41  37  87 SE7       29.86S
FORT MORGAN    FAIR      43  32  66 E6        29.82F
$$

COZ086-089-092>099-260800-
...SOUTHEAST COLORADO...

CITY           SKY/WX    TMP DP  RH WIND       PRES   REMARKS
PUEBLO         FAIR      42  29  59 N8        29.77F
LA JUNTA       FAIR      48  26  42 E16       29.77F
LAMAR          FAIR      39  22  50 E9        29.78F
SPRINGFIELD      N/A     39  25  57 SE10      29.80F
$$



USA.gov is the U.S. government's official web portal to all federal, state and local government web resources and services.